Location: Newark
(50.0306°N, 2.3272°E)
Time: 00:44:05
(UTC+00:00)

Transit 2A Rocket - Pass Details

Date: 10 December 2019
Orbit: 593 x 910 km, 66.7° (Epoch: 19 January)

Event Time Altitude Azimuth Distance (km) Brightness Sun altitude
Rises 23:09:52 0° 327° (NNW) 2,849 - -62.1°
Reaches altitude 10° 23:12:23 10° 340° (NNW) 1,958 - -62.2°
Maximum altitude 23:16:06 26° 38° (NE) 1,220 - -62.4°
Drops below altitude 10° 23:19:59 10° 96° (E) 2,044 - -62.5°
Sets 23:22:39 0° 109° (ESE) 3,001 - -62.6°
